SCP
0 0 0 0 0 0 0 0 0 0 0 0 0 0 0 0 0 0 0 0 0 0 0 0 0 1 1 1 1 1 1 0 0 0 0 0 0 0 0 0 0 0 0 0
0 0 0 0 0 0 0 0 0 0 0 0 0 0 0 0 0 0 0 0 0 0 0 0 0 0 1 1 1 1 1 0 0 0 0 0 0 0 0 0 0 0 0 0
0 0 0 0 0 0 0 0 0 0 0 0 0 0 0 0 0 0 0 0 0 0 0 0 0 0 0 1 0 0 0 0 0 0 0 0 0 0 0 0 0 0 0 0
0 0 0 0 0 0 0 0 0 0 0 0 0 0 0 0 0 0 0 0 0 0 0 0 0 0 0 0 0 0 0 0 0 0 0 0 0 0 0 0 0 0 0 0
0 0 0 0 0 0 0 0 0 0 0 0 0 0 0 0 0 0 0 0 0 0 0 0 0 0 0 0 0 0 0 0 0 0 0 0 0 0 0 0 0 0 0 0
0 0 0 0 0 0 0 0 0 0 0 0 0 0 0 0 0 0 0 0 0 0 0 0 0 0 0 0 0 0 0 0 0 0 0 0 0 0 0 0 0 0 0 0
0 0 0 0 0 0 0 0 0 0 0 0 0 0 0 0 0 0 0 0 0 0 0 0 0 0 0 0 0 0 0 0 0 0 0 0 0 0 0 0 0 0 0 0
0 0 0 0 0 0 0 0 0 0 0 0 0 0 0 0 0 0 0 0 0 0 0 0 0 0 0 0 0 0 0 0 0 0 0 0 0 0 0 0 0 0 0 0
0 0 0 0 0 0 0 0 0 0 0 0 0 0 0 0 0 0 0 0 0 0 0 0 0 0 0 0 0 0 0 0 0 0 0 0 0 0 0 0 0 0 0 0
0 0 0 0 0 0 0 0 0 0 0 0 0 0 0 0 0 0 0 0 0 0 0 0 0 0 0 0 0 0 0 0 0 0 0 0 0 0 0 0 0 0 0 0
0 0 0 0 0 0 0 0 0 0 0 0 0 0 0 0 0 0 0 0 0 0 0 0 0 0 0 0 0 0 0 0 0 0 0 0 0 0 0 0 0 0 0 0
0 0 0 0 0 0 0 0 0 0 0 0 0 0 0 0 0 0 0 0 0 0 0 0 0 0 0 0 0 0 0 0 0 0 0 0 0 0 0 0 0 0 0 0
0 0 0 0 0 0 0 0 0 0 0 0 0 0 0 0 0 0 0 0 0 0 0 0 0 0 0 0 0 0 0 0 0 0 0 0 0 0 0 0 0 0 0 0
0 0 0 0 0 0 0 0 0 0 0 0 0 0 0 0 0 0 0 0 0 0 0 0 0 0 0 0 0 0 0 0 0 0 0 0 0 0 0 0 0 0 0 0
0 0 0 0 0 0 0 0 0 0 0 0 0 0 0 0 0 0 0 0 0 0 0 0 0 0 0 0 0 0 0 0 0 0 0 0 0 0 0 0 0 0 0 0
0 0 0 0 0 0 0 0 0 0 0 0 0 0 0 0 0 0 0 0 0 0 0 0 0 0 0 0 0 0 0 0 0 0 0 0 0 0 0 0 0 0 0 0
0 0 0 0 0 0 0 0 0 0 0 0 0 0 0 0 0 0 0 0 0 0 0 0 0 0 0 0 0 0 0 0 0 0 0 0 0 0 0 0 0 0 0 0
0 0 0 0 0 0 0 0 0 0 0 0 0 0 0 0 0 0 0 0 0 0 0 0 0 0 0 0 0 0 0 0 0 0 0 0 0 0 0 0 0 0 0 0
0 0 0 0 0 0 0 0 0 0 0 0 0 0 0 0 0 0 0 0 0 0 0 0 0 0 0 0 0 0 0 0 0 0 0 0 0 0 0 0 0 0 0 0
0 0 0 0 0 0 0 0 0 0 0 0 0 0 0 0 0 0 0 0 0 0 0 0 0 0 0 0 0 0 0 0 0 0 0 0 0 0 0 0 0 0 0 0
0 0 0 0 0 0 0 0 0 0 0 0 0 0 0 0 0 0 0 0 0 0 0 0 0 0 0 0 0 0 0 0 0 0 0 0 0 0 0 0 0 0 0 0
0 0 0 0 0 0 0 0 0 0 0 0 0 0 0 0 0 0 0 0 0 0 0 0 0 0 0 0 0 0 0 0 0 0 0 0 0 0 0 0 0 0 0 0
0 0 0 0 0 0 0 0 0 0 0 0 0 0 0 0 0 0 0 0 0 0 0 0 0 0 0 0 0 0 0 0 0 0 0 0 0 0 0 0 0 0 0 0
0 0 0 0 0 0 0 0 0 0 0 0 0 0 0 0 0 0 0 0 0 0 0 0 0 0 0 0 0 0 0 0 0 0 0 0 0 0 0 0 0 0 0 0
0 0 0 0 0 0 0 0 0 0 0 0 0 0 0 0 0 0 0 0 0 0 0 0 0 0 0 0 0 0 0 0 0 0 0 0 0 0 0 0 0 0 0 0
0 0 0 0 0 0 0 0 0 0 0 0 0 0 0 0 0 0 0 0 0 0 0 0 0 0 0 0 0 0 0 0 0 0 0 0 0 0 0 0 0 0 0 0
Wind_Speed
2 4 6 7 6 4 3 5 6 5 3 6 9 12 10 7 6 7 6 5 4 4 3 3 2 1 2 2 2 3 3 2 2 2 2 2 2 2 2 1 2 3 4 4
3 7 5 3 4 4 5 6 7 5 3 5 9 12 10 8 7 7 5 5 4 3 1 1 1 1 1 1 2 2 3 3 3 2 2 2 2 1 2 1 2 3 4 4
7 1 3 5 5 6 7 8 7 6 5 5 8 10 7 5 5 5 5 4 3 2 2 1 1 0 1 1 1 1 2 2 3 2 2 2 1 1 1 2 2 3 3 4
6 3 4 5 6 7 7 5 6 6 6 4 4 7 6 4 5 5 4 3 3 2 2 1 1 1 1 1 1 2 2 3 3 3 3 4 3 2 2 2 2 3 4 4
5 4 5 7 6 6 3 1 4 6 6 7 6 8 7 3 7 6 4 3 2 1 1 1 1 1 1 0 0 1 2 3 3 4 4 4 3 3 2 2 3 3 3 3
5 3 4 3 1 3 2 1 2 3 4 7 7 8 7 4 5 3 3 3 2 1 1 1 1 1 0 1 0 1 1 2 3 4 4 4 4 4 3 3 3 3 3 3
4 4 3 2 3 3 3 3 3 4 5 6 2 6 8 2 2 3 3 3 2 1 0 1 1 1 1 0 0 1 1 1 2 3 4 4 5 4 5 4 4 4 3 3
5 5 6 5 5 5 6 6 5 5 5 4 3 8 4 1 1 1 1 2 1 0 1 1 1 1 1 1 1 1 1 1 2 2 3 3 4 3 3 4 4 4 3 4
5 5 1 3 3 4 5 6 4 5 5 7 7 6 5 2 2 2 1 1 1 1 1 1 1 1 2 1 1 1 1 2 2 2 2 3 3 3 3 4 4 3 3 3
3 5 3 1 2 2 4 3 4 6 6 8 8 8 4 2 3 2 2 1 1 1 1 1 1 2 2 2 2 1 2 2 2 2 2 2 2 2 2 3 3 4 4 3
3 4 3 3 7 7 5 5 6 5 5 6 7 4 1 1 2 2 2 1 1 0 1 2 2 2 2 2 2 2 2 2 1 1 2 2 2 2 2 2 3 3 3 3
2 3 5 6 4 5 6 6 6 6 6 6 7 5 3 1 1 1 1 1 1 0 1 2 2 3 3 3 3 3 2 2 2 1 1 1 1 1 2 2 2 3 3 3
1 4 4 4 3 3 4 4 5 4 4 7 9 6 3 2 3 3 2 2 1 0 1 1 2 3 3 3 3 3 3 3 2 1 1 1 1 2 2 2 2 2 2 3
3 6 9 10 6 4 7 8 8 7 7 9 12 12 7 5 5 4 4 3 1 1 0 1 2 2 3 3 4 4 3 3 2 1 1 1 1 2 2 2 2 2 2 2
3 7 8 10 9 9 11 12 12 14 14 13 13 13 10 7 6 5 4 3 2 1 1 2 2 2 3 3 4 4 4 3 2 1 1 1 1 1 1 1 1 1 1 2
3 5 5 9 9 9 12 13 14 15 14 15 15 13 7 4 3 4 4 3 3 2 2 3 3 3 3 4 4 4 4 3 2 2 2 1 1 1 1 1 1 1 1 1
4 5 5 7 6 7 10 9 9 9 8 9 10 7 3 3 4 4 4 3 3 3 3 3 3 3 3 4 4 4 4 3 3 2 2 2 1 1 1 1 1 1 1 1
7 6 4 5 5 9 3 2 4 6 6 5 5 4 4 4 4 4 3 2 3 3 3 4 3 4 4 4 4 3 3 3 2 2 2 2 2 2 2 1 1 2 1 1
9 7 5 4 7 8 2 2 2 5 5 3 5 5 4 3 3 2 1 2 3 3 3 3 4 4 3 3 3 3 2 2 2 3 3 2 2 2 2 2 2 2 2 1
4 7 6 5 7 7 1 4 5 4 5 2 4 5 3 2 3 2 2 3 3 3 2 3 3 3 3 3 3 2 2 2 3 3 3 3 2 2 2 2 2 2 2 2
2 4 7 7 7 5 4 5 2 3 3 5 4 4 3 4 4 3 3 3 2 3 3 3 3 2 3 3 2 2 2 3 4 3 3 3 2 2 2 2 2 2 2 2
4 4 5 5 6 3 4 2 1 4 5 4 4 4 3 2 3 2 2 2 3 3 3 3 2 3 3 3 2 2 3 4 3 3 3 3 3 2 2 2 2 2 1 1
4 3 2 3 2 2 1 1 3 4 4 4 4 4 2 2 2 2 2 2 3 3 3 3 3 3 3 3 3 2 3 3 3 2 2 2 2 2 2 2 2 1 1 1
2 2 3 3 3 3 3 3 4 4 4 5 4 3 2 2 3 3 3 3 3 4 4 3 3 3 4 4 4 3 4 3 3 3 3 2 2 2 2 2 2 1 1 1
4 2 3 4 3 3 2 4 5 5 4 4 4 4 3 3 3 3 3 3 4 4 4 4 3 3 4 4 5 5 4 3 3 3 3 3 3 2 2 2 2 2 2 2
2 4 5 4 3 3 4 4 4 4 4 4 4 4 4 3 3 3 3 3 4 4 4 4 4 4 5 5 5 5 5 4 3 2 3 3 2 2 2 1 2 3 2 3
Wind_Direction
175 207 214 212 218 257 232 242 259 267 278 267 265 273 276 270 259 268 275 281 280 280 286 282 266 228 206 193 203 187 183 168 166 178 183 178 181 179 175 183 188 189 186 184
193 227 229 211 203 210 221 244 261 271 264 269 279 278 273 259 251 256 265 274 282 284 298 282 280 188 179 182 193 188 187 174 177 193 196 201 198 203 188 183 194 191 188 191
222 226 163 187 200 213 231 241 256 273 292 255 282 273 249 232 232 245 251 258 274 276 280 277 270 241 208 213 213 201 201 189 184 185 176 162 161 166 179 197 201 201 195 192
237 224 201 210 221 222 246 243 248 261 271 264 265 284 258 237 239 240 242 249 266 278 289 305 296 260 244 237 222 212 203 191 186 182 186 185 192 201 216 212 208 199 201 198
228 202 210 225 233 218 247 248 246 255 257 269 242 257 267 231 248 238 223 228 239 253 272 283 296 282 237 220 274 240 198 193 187 189 196 201 211 216 209 205 206 200 199 203
250 229 231 229 209 192 159 170 227 224 234 251 235 239 266 223 242 231 206 210 214 222 250 286 6 24 70 63 195 243 199 188 186 194 200 208 213 210 204 209 206 206 202 206
238 214 196 177 162 171 202 222 240 224 221 243 179 237 257 260 223 226 219 205 195 201 297 351 13 5 0 333 220 228 200 188 197 203 208 214 216 211 210 211 209 207 205 208
241 232 194 202 217 207 213 225 237 256 260 268 217 241 258 76 161 225 224 196 175 247 354 348 352 340 332 320 293 270 242 219 206 210 219 226 225 217 218 218 217 213 214 218
240 244 164 223 257 213 196 219 260 267 273 266 245 249 262 189 207 204 191 195 213 303 335 342 351 346 343 328 297 280 252 238 220 215 217 225 228 227 228 226 222 219 222 222
258 263 240 213 205 239 255 201 194 214 238 252 253 247 250 198 210 199 209 245 265 310 333 343 350 351 346 334 312 291 271 257 229 217 219 228 228 234 236 223 222 225 223 218
257 246 248 227 222 223 196 202 221 229 250 256 262 251 53 278 227 203 216 258 285 296 337 344 350 352 351 339 332 313 291 287 269 228 226 233 231 231 234 228 229 229 224 217
245 248 251 251 277 281 236 225 211 230 237 245 266 266 73 20 342 274 280 296 286 307 356 355 357 359 357 349 340 323 302 288 285 256 231 235 238 223 228 240 239 231 224 222
229 231 251 239 200 180 218 219 233 257 252 238 246 250 105 20 335 318 304 299 275 247 357 356 359 3 355 347 340 328 315 299 282 271 252 241 239 230 229 240 245 237 225 223
253 235 240 251 267 244 249 246 238 231 239 248 247 261 274 304 307 304 297 289 271 252 305 341 347 353 349 342 337 331 325 312 297 266 247 247 255 251 251 249 243 241 232 223
239 250 254 268 274 263 258 254 245 239 242 252 261 266 279 295 296 291 284 275 258 262 304 327 329 335 337 337 336 334 333 327 310 277 258 258 265 259 256 257 256 244 233 223
258 258 270 270 263 263 264 259 249 245 248 255 266 269 290 302 299 288 278 261 250 270 300 316 319 321 323 326 326 327 327 326 311 293 285 286 276 257 257 266 260 243 235 224
232 235 248 265 280 276 258 255 248 246 243 249 256 267 297 286 281 276 268 254 256 282 297 301 301 304 311 315 315 314 316 318 306 295 295 292 280 273 272 267 260 251 235 223
227 232 241 262 266 246 263 353 255 243 242 249 268 283 273 280 285 278 266 257 282 294 296 301 305 307 310 312 311 310 314 314 315 309 305 308 301 295 294 280 274 274 261 242
221 221 224 233 249 261 267 324 285 242 248 270 276 285 308 327 285 244 268 311 301 295 295 302 306 305 305 310 314 312 318 324 332 330 324 317 301 287 284 276 272 277 270 262
205 218 227 228 244 254 312 344 315 240 232 323 301 290 295 288 272 291 335 323 322 321 320 317 314 312 312 317 315 311 319 326 326 325 319 314 305 286 273 269 274 283 270 265
185 205 224 234 244 257 6 337 307 228 310 342 312 300 278 264 299 345 338 330 333 333 337 334 326 325 327 325 317 316 327 326 325 325 321 318 315 306 294 284 277 269 265 257
219 215 213 225 236 248 23 23 311 323 341 331 330 327 310 323 343 348 340 337 340 345 349 347 344 342 342 340 327 321 328 331 331 331 331 330 328 328 314 300 293 278 261 253
237 246 251 233 258 12 9 328 339 342 330 333 334 335 343 348 348 352 346 344 345 350 351 348 349 351 354 353 343 333 335 337 338 343 338 337 337 335 324 311 302 297 283 273
261 296 254 257 267 316 335 351 352 347 337 334 340 352 9 9 3 358 353 355 356 355 351 353 356 354 352 350 349 348 343 339 343 345 342 341 339 341 340 338 324 309 295 283
289 276 261 260 291 322 336 345 340 346 354 4 13 13 17 24 19 16 11 6 2 360 358 359 1 1 352 352 354 352 350 347 350 351 347 344 341 336 343 351 346 325 320 309
269 260 260 265 282 279 296 320 338 347 355 1 10 13 14 18 21 19 13 9 7 4 1 3 2 357 353 355 356 354 349 347 351 349 348 343 337 334 334 343 358 15 346 345